Theta_e
327 326 327 328 333 338 341 344 342 341 341 342 342 341 341 338 338 338 337 336 335 334 332 328 324 323 321 319 315 314 314 316
326 327 331 331 336 339 342 343 343 341 341 341 341 338 336 335 334 333 334 335 332 330 327 324 323 322 320 317 314 314 315 318
326 327 335 335 338 341 344 345 343 341 340 338 336 335 331 327 326 328 331 330 326 324 322 321 321 322 319 316 314 314 316 317
328 329 328 339 341 343 347 345 342 340 338 335 331 326 322 320 322 323 320 321 320 320 319 319 319 317 316 313 313 314 316 316
330 332 330 329 338 344 345 343 340 339 337 333 328 324 320 318 316 314 313 314 315 316 315 313 311 310 311 312 314 314 313 315
331 330 329 330 331 334 344 341 337 335 332 330 325 323 319 314 313 310 309 309 309 308 307 308 307 306 307 306 309 311 312 312
330 330 329 327 324 323 329 332 328 329 326 324 323 320 311 309 307 306 306 306 305 306 307 306 305 303 300 301 303 305 305 305
330 331 330 327 324 319 319 322 320 321 321 320 318 314 312 308 307 307 307 307 307 307 307 306 305 303 303 303 302 301 302 302
331 330 329 328 326 323 319 317 316 318 319 317 317 315 314 312 312 312 310 309 308 307 306 303 303 301 300 300 300 300 299 299
329 329 328 328 328 326 325 324 321 318 317 314 314 313 313 311 310 309 306 306 305 303 303 303 302 301 300 299 300 299 300 302
329 329 328 328 328 327 326 324 322 319 317 316 314 313 310 308 306 305 305 304 304 302 303 301 301 301 300 299 298 298 297 296
328 328 327 327 326 324 323 322 320 318 315 313 312 311 310 308 308 306 306 305 305 302 303 301 300 299 298 297 297 296 295 294
327 326 325 325 323 322 321 321 320 319 317 314 313 311 311 309 309 308 308 307 305 302 300 298 297 297 296 295 294 295 294 294
326 325 324 323 322 320 320 320 319 319 318 316 314 312 311 310 309 306 304 304 302 300 299 298 296 295 293 294 294 294 295 295
325 325 324 322 321 321 320 320 319 318 317 317 315 313 312 310 306 304 302 301 300 299 298 297 297 297 298 299 297 296 295 294
323 323 323 323 322 321 320 320 319 318 317 317 316 314 313 311 308 306 305 303 302 301 300 299 299 299 298 297 295 294 294 293
318 317 317 317 319 321 320 320 320 319 317 317 316 313 312 310 308 306 305 304 303 301 300 299 299 298 296 295 295 295 294 292
316 315 314 314 314 317 320 320 320 320 318 317 316 313 312 310 308 307 306 304 302 300 299 298 297 297 294 293 293 294 293 292
314 312 310 309 309 311 314 317 319 320 319 318 315 312 310 309 308 306 305 303 301 300 297 296 295 294 291 290 291 292 291 290
Wind_Speed
18 20 17 21 24 25 27 29 29 28 26 26 22 19 20 21 22 20 23 29 21 21 19 18 18 17 14 13 13 13 13 13
19 6 13 16 21 24 26 28 30 27 26 23 20 20 17 18 19 20 18 21 18 17 18 19 17 17 15 15 14 13 14 13
6 5 9 13 17 20 23 25 26 28 23 24 19 17 16 18 21 24 26 26 23 23 14 17 19 15 16 15 14 14 14 16
2 4 4 7 14 18 17 21 25 28 23 23 18 20 15 15 21 21 20 22 22 19 14 13 11 7 12 14 15 14 13 19
3 4 3 3 6 9 19 25 28 29 28 29 28 18 13 9 17 18 17 17 18 19 19 15 13 16 13 9 4 6 6 10
2 0 1 1 4 4 12 20 26 26 29 30 25 17 20 24 24 21 19 17 15 15 13 14 13 10 17 12 6 5 7 4
2 4 5 5 5 7 13 20 18 23 25 23 25 25 26 27 25 23 20 18 16 12 9 9 8 8 9 13 11 9 7 7
4 5 5 5 6 8 13 19 20 21 23 24 25 25 26 25 25 26 24 23 19 19 17 19 17 13 15 15 19 14 8 6
6 5 6 8 9 9 10 12 17 19 20 21 21 21 22 25 26 25 22 25 25 18 19 14 21 15 9 12 12 10 11 10
8 7 8 9 10 11 12 14 14 14 15 18 24 24 31 31 29 28 27 23 29 22 19 17 15 18 14 13 13 14 14 15
8 8 8 10 11 13 13 13 14 15 16 16 17 16 15 18 21 23 21 19 22 18 18 16 18 14 14 14 14 15 14 12
9 9 11 11 13 15 15 16 17 18 16 16 16 16 17 17 16 18 17 18 20 20 18 15 14 15 13 13 13 13 13 12
12 11 13 15 15 14 14 15 16 16 17 17 17 18 18 18 17 17 18 18 18 18 19 20 17 17 16 15 13 11 11 10
15 15 14 17 17 16 17 17 17 19 19 19 19 19 19 18 19 20 22 21 21 21 19 16 15 16 16 12 10 11 10 9
18 16 15 16 19 20 19 19 20 21 21 22 21 20 21 19 18 19 20 20 20 18 17 17 15 13 12 12 12 11 10 8
10 10 10 14 20 21 22 22 21 22 22 22 22 22 21 20 21 21 21 20 19 19 19 17 16 15 14 15 14 13 11 9
16 13 13 9 18 21 24 23 24 21 23 23 21 21 20 22 21 22 22 22 21 20 20 20 19 16 17 19 16 14 12 11
2 6 16 16 12 21 22 20 24 25 26 24 24 24 24 23 23 24 24 23 22 23 22 20 21 17 22 21 16 11 12 11
7 5 13 25 25 25 33 8 19 26 27 26 27 26 26 26 26 27 26 25 26 25 26 26 19 21 21 20 17 14 14 14
Wind_Direction
259 256 257 248 222 212 200 195 200 206 210 210 203 199 195 200 207 198 207 200 197 196 195 190 188 180 185 185 183 190 192 185
251 282 266 237 215 213 199 195 196 203 201 195 194 193 184 192 194 193 190 187 189 195 195 182 191 183 180 184 181 187 190 174
215 292 272 224 213 217 200 198 194 197 198 191 194 182 183 192 197 197 199 200 195 186 173 190 186 190 171 178 182 180 188 179
176 296 284 250 219 211 194 193 193 194 194 182 174 169 178 183 195 191 189 193 188 181 173 193 226 167 166 169 183 189 187 181
245 318 282 233 341 208 189 191 195 194 194 191 190 181 171 178 167 161 159 171 179 180 174 166 149 124 120 125 155 168 128 181
214 101 19 65 357 19 184 184 185 187 195 200 187 161 153 146 150 148 140 140 149 142 143 153 151 136 131 135 136 114 130 162
175 131 125 105 94 109 139 158 156 177 186 189 183 167 146 140 141 136 135 127 121 119 113 102 96 112 83 105 109 99 86 90
196 180 154 135 131 127 141 154 151 164 171 171 171 165 160 147 145 141 139 142 146 151 152 158 146 165 166 181 168 164 164 149
215 181 167 156 155 154 150 152 154 167 169 166 164 165 165 163 160 158 160 162 161 167 158 180 152 149 139 155 159 162 164 162
201 191 178 170 165 162 165 165 163 165 161 157 160 163 160 160 158 157 171 168 150 170 167 167 160 158 168 168 175 181 192 203
191 196 191 179 164 154 150 148 147 150 146 146 146 150 148 146 153 145 158 163 146 152 171 167 166 160 179 179 186 190 185 181
191 193 198 168 153 146 149 149 148 146 145 146 145 147 148 151 150 152 153 153 157 164 170 160 155 158 173 171 171 168 167 162
193 192 188 174 171 167 166 163 161 163 163 159 158 158 157 158 161 161 161 161 163 162 163 163 159 165 172 177 158 160 158 152
198 196 197 193 187 184 176 175 175 173 171 171 166 163 163 164 167 169 171 171 171 168 167 163 164 168 172 169 174 172 172 176
207 202 207 208 200 194 189 184 184 179 176 167 167 173 172 172 177 174 170 171 168 168 169 165 168 173 178 178 176 171 166 158
230 222 230 219 220 213 200 189 194 189 182 189 186 182 177 175 173 173 172 172 173 172 170 172 175 179 180 176 169 169 168 165
338 343 321 346 311 223 208 204 185 192 194 190 183 180 178 172 175 173 174 176 174 173 175 176 176 178 186 181 174 173 175 177
275 318 309 308 296 270 261 204 207 182 198 194 181 181 181 176 180 178 178 175 172 175 177 177 176 184 191 186 174 173 178 178
283 305 309 302 310 316 319 243 256 200 199 194 179 183 180 177 182 178 174 173 177 177 181 184 179 195 184 181 178 182 175 175